Weather History for KFSI - January, 2013

Change the Weather History Date:

Tuesday, January 15, 2013

  Actual Average Record
Temperature  
Mean Temperature 30 °F -  
Max Temperature 37 °F 52 °F 72 °F (1952)
Min Temperature 22 °F 24 °F 5 °F (1972)
Degree Days  
Heating Degree Days 36    
Moisture  
Dew Point 16 °F    
Average Humidity 61    
Maximum Humidity 78    
Minimum Humidity 41    
Precipitation  
Precipitation 0.00 in - - ()
Sea Level Pressure  
Sea Level Pressure 30.27 in    
Wind  
Wind Speed 10 mph (North)    
Max Wind Speed 14 mph    
Max Gust Speed -    
Visibility 10 miles    
Events      
Averages and records for this station are not official NWS values.
T = Trace of Precipitation, MM = Missing Value Source: NWS Daily Summary

Daily Weather History Graph

Daily Weather History Graph

Search for Another Location

Airport or City:

Trip Planner

Search our weather history database for the weather conditions in past years. The results will help you decide how hot, cold, wet, or windy it might be!

Date:

Astronomy

Jan. 15, 2013 Rise Set
Actual Time 7:40 AM CST 5:46 PM CST
Civil Twilight 7:12 AM CST 6:13 PM CST
Nautical Twilight 6:41 AM CST 6:44 PM CST
Astronomical Twilight 6:11 AM CST 7:14 PM CST
Moon 9:59 AM CST (1/15) 10:23 PM CST (1/15)
Length of Visible Light 11h 00m
Length of Day
10h 06m
Waxing Crescent, 19% of the Moon is Illuminated
Jan 15
Waxing Crescent
Jan 18
First Quarter
Jan 26
Full
Feb 3
Last Quarter
Feb 10
New

Hourly Weather History & Observations

Time (CST) Temp. Windchill Dew Point Humidity Pressure Visibility Wind Dir Wind Speed Gust Speed Precip Events Conditions
12:55 AM 22.1 °F 12.0 °F 15.1 °F 74% 30.30 in 10.0 mi North 9.2 mph - N/A   Clear
1:55 AM 22.8 °F 12.9 °F 15.3 °F 73% 30.28 in 10.0 mi North 9.2 mph - N/A   Clear
2:55 AM 23.0 °F 12.4 °F 16.0 °F 74% 30.30 in 10.0 mi North 10.4 mph - N/A   Clear
3:55 AM 24.6 °F 14.4 °F 16.9 °F 72% 30.28 in 10.0 mi NNE 10.4 mph - N/A   Overcast
4:55 AM 24.4 °F 12.4 °F 17.2 °F 74% 30.27 in 10.0 mi NNE 13.8 mph - N/A   Overcast
5:55 AM 24.6 °F 13.8 °F 18.1 °F 76% 30.26 in 10.0 mi North 11.5 mph - N/A   Overcast
6:55 AM 24.6 °F 15.8 °F 18.5 °F 78% 30.27 in 10.0 mi North 8.1 mph - N/A   Overcast
7:55 AM 24.8 °F 15.3 °F 18.7 °F 78% 30.29 in 10.0 mi North 9.2 mph - N/A   Overcast
8:55 AM 26.2 °F 15.2 °F 18.1 °F 71% 30.30 in 10.0 mi North 12.7 mph - N/A   Overcast
9:55 AM 28.0 °F 17.5 °F 18.1 °F 66% 30.30 in 10.0 mi North 12.7 mph - N/A   Overcast
10:55 AM 29.8 °F 19.3 °F 17.8 °F 61% 30.29 in 10.0 mi NNE 13.8 mph - N/A   Overcast
11:55 AM 32.0 °F 23.0 °F 17.1 °F 54% 30.26 in 10.0 mi NNE 11.5 mph - N/A   Overcast
12:55 PM 34.0 °F 25.0 °F 16.3 °F 49% 30.24 in 10.0 mi NNE 12.7 mph - N/A   Overcast
1:55 PM 34.9 °F 27.1 °F 15.8 °F 46% 30.22 in 10.0 mi North 10.4 mph - N/A   Overcast
2:55 PM 36.0 °F 28.0 °F 15.4 °F 43% 30.23 in 10.0 mi North 11.5 mph - N/A   Overcast
3:55 PM 35.6 °F 28.6 °F 15.1 °F 43% 30.24 in 10.0 mi North 9.2 mph - N/A   Overcast
4:55 PM 37.0 °F 29.8 °F 15.3 °F 41% 30.25 in 10.0 mi North 10.4 mph - N/A   Overcast
5:55 PM 32.7 °F 25.7 °F 14.2 °F 47% 30.26 in 10.0 mi North 8.1 mph - N/A   Partly Cloudy
6:55 PM 29.5 °F 23.4 °F 14.9 °F 55% 30.27 in 10.0 mi North 5.8 mph - N/A   Clear
7:55 PM 28.8 °F 23.7 °F 14.0 °F 54% 30.28 in 10.0 mi North 4.6 mph - N/A   Clear
8:55 PM 27.5 °F 23.6 °F 13.6 °F 56% 30.29 in 10.0 mi NW 3.5 mph - N/A   Scattered Clouds
9:55 PM 27.5 °F 21.1 °F 14.0 °F 57% 30.28 in 10.0 mi NNW 5.8 mph - N/A   Clear
10:55 PM 25.2 °F 20.9 °F 15.1 °F 66% 30.27 in 10.0 mi NW 3.5 mph - N/A   Clear
11:55 PM 26.1 °F 21.9 °F 14.0 °F 60% 30.25 in 10.0 mi NNW 3.5 mph - N/A   Clear